Weather History for Port Hedland, WE

Change the Weather History Date:

Tuesday, December 11, 2012

  Actual Average Record
Temperature  
Mean Temperature 88 °F -  
Max Temperature 99 °F 98 °F 104 °F (2010)
Min Temperature 77 °F 76 °F 69 °F (2008)
Cooling Degree Days 23    
Growing Degree Days 38 (Base 50)    
Moisture  
Dew Point 61 °F    
Average Humidity 37    
Maximum Humidity 62    
Minimum Humidity 21    
Precipitation  
Precipitation 0.00 in 0.04 in - ()
Sea Level Pressure  
Sea Level Pressure 29.77 in    
Wind  
Wind Speed 12 mph ()    
Max Wind Speed 20 mph    
Max Gust Speed 31 mph    
Visibility 7.8 miles    
Events Rain    
Averages and records for this station are not official NWS values.
T = Trace of Precipitation, MM = Missing Value Source: Averaged Metar Reports

Daily Weather History Graph

Daily Weather History Graph

Search for Another Location

Airport:

Trip Planner

Search our weather history database for the weather conditions in past years. The results will help you decide how hot, cold, wet, or windy it might be!

Date:

Astronomy

Dec. 11, 2012 Rise Set
Actual Time 5:18 AM AWST 6:39 PM AWST
Civil Twilight 4:53 AM AWST 7:03 PM AWST
Nautical Twilight 4:24 AM AWST 7:32 PM AWST
Astronomical Twilight 3:54 AM AWST 8:03 PM AWST
Moon 3:01 AM AWST (12/11) 4:26 PM AWST (12/11)
Length of Visible Light 14h 09m
Length of Day
13h 20m
Waning Crescent, 7% of the Moon is Illuminated
Dec 11
Waning Crescent
Dec 13
New
Dec 20
First Quarter
Dec 28
Full
Jan 5
Last Quarter

Hourly Weather History & Observations

Time (AWST) Temp. Heat Index Dew Point Humidity Pressure Visibility Wind Dir Wind Speed Gust Speed Precip Events Conditions
12:00 AM 86 °F - 65 °F 40% 29.80 in - SW 18.4 mph - -  
12:00 AM 86.0 °F 88.2 °F 66.2 °F 51% 29.80 in 6.2 mi SW 18.4 mph - N/A   Unknown
12:30 AM 86.0 °F 84.9 °F 57.2 °F 37% 29.77 in 6.2 mi SSW 19.6 mph - N/A   Unknown
1:00 AM 86.0 °F 84.9 °F 57.2 °F 37% 29.77 in 6.2 mi SSW 18.4 mph - N/A   Unknown
1:30 AM 86.0 °F 84.9 °F 57.2 °F 37% 29.77 in 6.2 mi South 13.8 mph - N/A   Unknown
2:00 AM 84 °F - 58 °F 31% 29.76 in - South 10.4 mph - -  
2:00 AM 84.2 °F 83.8 °F 59.0 °F 42% 29.74 in 6.2 mi South 10.4 mph - N/A   Unknown
2:30 AM 84.2 °F 83.8 °F 59.0 °F 42% 29.74 in 6.2 mi South 10.4 mph - N/A   Unknown
3:00 AM 85 °F - 58 °F 30% 29.75 in - South 12.7 mph - -  
3:00 AM 86.0 °F 85.4 °F 59.0 °F 40% 29.74 in 6.2 mi South 12.7 mph - N/A   Unknown
3:30 AM 84.2 °F 83.5 °F 57.2 °F 40% 29.74 in 6.2 mi South 11.5 mph - N/A   Unknown
4:00 AM 84.2 °F 83.5 °F 57.2 °F 40% 29.74 in 6.2 mi SSE 8.1 mph - N/A   Unknown
4:30 AM 82.4 °F 82.5 °F 59.0 °F 45% 29.77 in 6.2 mi East 8.1 mph - N/A   Unknown
5:00 AM 81 °F - 61 °F 41% 29.78 in - North 8.1 mph - -  
5:00 AM 80.6 °F 81.5 °F 60.8 °F 51% 29.77 in 6.2 mi North 8.1 mph - N/A   Unknown
5:30 AM 78.8 °F - 60.8 °F 54% 29.77 in 6.2 mi North 5.8 mph - N/A   Unknown
6:00 AM 79 °F - 63 °F 48% 29.79 in 19 mi NNW 6.9 mph - -   Partly Cloudy
6:00 AM 78.8 °F - 62.6 °F 57% 29.77 in - NNW 6.9 mph - N/A   Clear
6:30 AM 86.0 °F 86.6 °F 62.6 °F 45% 29.80 in - North 5.8 mph - N/A   Clear
7:00 AM 89.6 °F 89.5 °F 60.8 °F 38% 29.80 in - North 8.1 mph - N/A   Clear
7:30 AM 89.6 °F 88.1 °F 57.2 °F 33% 29.80 in - North 6.9 mph - N/A   Clear
8:00 AM 90 °F - 59 °F 25% 29.82 in - North 6.9 mph - -  
8:00 AM 89.6 °F 88.9 °F 59.0 °F 36% 29.80 in - North 6.9 mph - N/A   Clear
8:30 AM 91.4 °F 91.4 °F 60.8 °F 36% 29.80 in - North 5.8 mph - N/A   Clear
9:00 AM 92 °F - 58 °F 22% 29.82 in 19 mi NNE 8.1 mph - -   Partly Cloudy
9:00 AM 91.4 °F 89.9 °F 57.2 °F 31% 29.80 in - NNE 8.1 mph - N/A   Clear
9:30 AM 93.2 °F 91.9 °F 57.2 °F 30% 29.80 in - NNE 8.1 mph - N/A   Clear
10:00 AM 95.0 °F 94.4 °F 59.0 °F 30% 29.80 in - NNE 8.1 mph - N/A   Clear
10:30 AM 95.0 °F 95.2 °F 60.8 °F 32% 29.80 in - NNE 10.4 mph - N/A   Clear
11:00 AM 97 °F - 63 °F 23% 29.80 in - NNE 9.2 mph - -  
11:00 AM 96.8 °F 98.0 °F 62.6 °F 32% 29.80 in - NNE 9.2 mph - N/A   Clear
11:30 AM 96.8 °F 98.0 °F 62.6 °F 32% 29.77 in - North 13.8 mph - N/A   Clear
12:00 PM 97 °F - 61 °F 21% 29.78 in 19 mi North 13.8 mph - -   Partly Cloudy
12:00 PM 96.8 °F 97.1 °F 60.8 °F 30% 29.77 in - North 13.8 mph - N/A   Clear
12:30 PM 98.6 °F 100.0 °F 62.6 °F 30% 29.77 in - NW 17.3 mph - N/A   Clear
1:00 PM 98.6 °F 100.0 °F 62.6 °F 30% 29.74 in - NNW 17.3 mph - N/A   Clear
1:30 PM 95.0 °F 98.5 °F 66.2 °F 39% 29.74 in - NW 19.6 mph - N/A   Clear
2:00 PM 96 °F - 62 °F 23% 29.73 in - NW 19.6 mph - -  
2:00 PM 96.8 °F 98.0 °F 62.6 °F 32% 29.71 in - NW 19.6 mph - N/A   Clear
2:30 PM 98.6 °F 100.0 °F 62.6 °F 30% 29.71 in - WNW 19.6 mph - N/A   Clear
3:00 PM 97 °F - 62 °F 22% 29.72 in 19 mi NW 18.4 mph - -   Partly Cloudy
3:00 PM 96.8 °F 97.1 °F 60.8 °F 30% 29.71 in - NW 18.4 mph - N/A   Clear
3:30 PM 96.8 °F 97.1 °F 60.8 °F 30% 29.68 in 6.2 mi NW 17.3 mph - N/A   Unknown
4:00 PM 96.8 °F 97.1 °F 60.8 °F 30% 29.68 in 6.2 mi WNW 17.3 mph - N/A   Unknown
4:30 PM 95.0 °F 96.0 °F 62.6 °F 34% 29.68 in 6.2 mi NW 16.1 mph - N/A   Unknown
5:00 PM 94 °F - 62 °F 25% 29.71 in - WNW 15.0 mph - -  
5:00 PM 93.2 °F 94.1 °F 62.6 °F 36% 29.71 in 6.2 mi WNW 15.0 mph - N/A   Unknown
5:30 PM 93.2 °F 94.1 °F 62.6 °F 36% 29.71 in 6.2 mi NW 16.1 mph - N/A   Unknown
6:00 PM 91 °F - 63 °F 30% 29.74 in - WNW 16.1 mph - -  
6:00 PM 91.4 °F 92.1 °F 62.6 °F 38% 29.74 in 6.2 mi WNW 16.1 mph - N/A   Unknown
6:30 PM 89.6 °F 91.1 °F 64.4 °F 43% 29.74 in 6.2 mi WNW 11.5 mph - N/A   Unknown
7:00 PM 89.6 °F 92.2 °F 66.2 °F 46% 29.77 in 6.2 mi WNW 10.4 mph - N/A   Unknown
7:30 PM 91.4 °F 90.7 °F 59.0 °F 34% 29.80 in 6.2 mi SW 11.5 mph - N/A   Mostly Cloudy
8:00 PM 92 °F - 60 °F 25% 29.82 in - SW 9.2 mph - -  
8:00 PM 91.4 °F 91.4 °F 60.8 °F 36% 29.80 in 6.2 mi SW 9.2 mph - N/A   Overcast
8:30 PM 86.0 °F 87.3 °F 64.4 °F 48% 29.80 in 6.2 mi SSW 8.1 mph - N/A Rain Light Rain
9:00 PM 88 °F - 63 °F 33% 29.83 in - South 9.2 mph - -  
9:00 PM 87.8 °F 88.5 °F 62.6 °F 43% 29.83 in 6.2 mi South 9.2 mph - N/A   Overcast
9:30 PM 86.0 °F 88.2 °F 66.2 °F 51% 29.83 in 6.2 mi SSE 15.0 mph - N/A Rain Light Rain Showers
10:00 PM 86.0 °F 88.2 °F 66.2 °F 51% 29.86 in 6.2 mi SSE 19.6 mph - N/A Rain Light Rain Showers
10:30 PM 86.0 °F 88.2 °F 66.2 °F 51% 29.86 in 6.2 mi SE 13.8 mph - N/A   Unknown
11:00 PM 84 °F - 65 °F 43% 29.87 in - ESE 16.1 mph - -  
11:04 PM 84.2 °F 86.6 °F 66.2 °F 55% 29.86 in 6.2 mi ESE 18.4 mph 31.1 mph N/A   Unknown
11:30 PM 82.4 °F 85.4 °F 68.0 °F 62% 29.86 in 6.2 mi East 18.4 mph - N/A   Unknown